• In Austria
  • List of Countries
  • For 7 days
  • Water Temperature
  • Satellite Maps
  • Weather Map
  • News
  • Weather Widgets
  • user-avatar
    Login

    Hourly Weather Tercan

    Today, 19 November, Sunday

    Time Temperature Precipitation Wind Pressure Humidity
    00:00 +4°C° 0 mm 2 mps 620 mmHg 52%
    01:00 +4°C° 0 mm 2 mps 620 mmHg 53%
    02:00 +4°C° 0 mm 2 mps 620 mmHg 53%
    03:00 +4°C° 0 mm 2 mps 620 mmHg 52%
    04:00 +4°C° 0 mm 2 mps 620 mmHg 53%
    05:00 +3°C° 0 mm 2 mps 620 mmHg 54%
    06:00 +3°C° 0 mm 2 mps 619 mmHg 55%
    07:00 +4°C° 0 mm 2 mps 620 mmHg 52%
    08:00 +5°C° 0 mm 2 mps 620 mmHg 50%
    09:00 +6°C° 0 mm 2 mps 620 mmHg 47%
    10:00 +7°C° 0.1 mm 2 mps 620 mmHg 47%
    11:00 +8°C° 0.1 mm 3 mps 621 mmHg 46%
    12:00 +8°C° 0.1 mm 3 mps 621 mmHg 45%
    13:00 +8°C° 0.4 mm 3 mps 620 mmHg 52%
    14:00 +7°C° 0.4 mm 3 mps 620 mmHg 58%
    15:00 +7°C° 0.4 mm 3 mps 620 mmHg 65%
    16:00 +6°C° 0.9 mm 2 mps 619 mmHg 71%
    17:00 +5°C° 0.9 mm 2 mps 619 mmHg 78%
    18:00 +4°C° 0.9 mm 2 mps 619 mmHg 85%
    19:00 +4°C° 0.2 mm 2 mps 619 mmHg 87%
    20:00 +4°C° 0.2 mm 2 mps 619 mmHg 89%
    21:00 +3°C° 0.2 mm 2 mps 618 mmHg 91%
    22:00 +3°C° 0.1 mm 2 mps 619 mmHg 92%
    23:00 +3°C° 0.1 mm 2 mps 619 mmHg 92%

    Tomorrow, 20 November, Monday

    Time Temperature Precipitation Wind Pressure Humidity
    00:00 +3°C° 0.1 mm 2 mps 619 mmHg 92%
    01:00 +3°C° 0 mm 2 mps 619 mmHg 93%
    02:00 +2°C° 0 mm 2 mps 619 mmHg 93%
    03:00 +2°C° 0 mm 2 mps 618 mmHg 94%
    04:00 +2°C° 0 mm 2 mps 618 mmHg 94%
    05:00 +2°C° 0 mm 2 mps 618 mmHg 94%
    06:00 +2°C° 0 mm 2 mps 618 mmHg 93%
    07:00 +3°C° 0.1 mm 2 mps 618 mmHg 93%
    08:00 +3°C° 0.1 mm 2 mps 618 mmHg 92%
    09:00 +4°C° 0.1 mm 2 mps 618 mmHg 91%
    10:00 +3°C° 0.1 mm 3 mps 618 mmHg 88%
    11:00 +4°C° 0.1 mm 3 mps 618 mmHg 84%
    12:00 +5°C° 0.1 mm 4 mps 618 mmHg 80%
    13:00 +5°C° 0.1 mm 4 mps 617 mmHg 79%
    14:00 +5°C° 0.1 mm 4 mps 617 mmHg 77%
    15:00 +5°C° 0.1 mm 3 mps 616 mmHg 76%
    16:00 +5°C° 0.1 mm 3 mps 616 mmHg 80%
    17:00 +4°C° 0.1 mm 3 mps 616 mmHg 84%
    18:00 +4°C° 0.1 mm 2 mps 615 mmHg 88%
    19:00 +4°C° 0.3 mm 2 mps 615 mmHg 89%
    20:00 +4°C° 0.3 mm 2 mps 615 mmHg 90%
    21:00 +3°C° 0.3 mm 3 mps 615 mmHg 92%
    22:00 +3°C° 0.4 mm 3 mps 614 mmHg 92%
    23:00 +3°C° 0.4 mm 3 mps 614 mmHg 92%

    Day after tomorrow, 21 November, Tuesday

    Time Temperature Precipitation Wind Pressure Humidity
    00:00 +3°C° 0.4 mm 3 mps 614 mmHg 92%
    01:00 +3°C° 0.4 mm 3 mps 614 mmHg 92%
    02:00 +3°C° 0.4 mm 3 mps 614 mmHg 92%
    03:00 +3°C° 0.4 mm 3 mps 613 mmHg 92%
    04:00 +3°C° 0.4 mm 3 mps 613 mmHg 93%
    05:00 +3°C° 0.4 mm 3 mps 613 mmHg 94%
    06:00 +3°C° 0.4 mm 3 mps 613 mmHg 94%
    07:00 +3°C° 0.6 mm 3 mps 612 mmHg 94%
    08:00 +3°C° 0.6 mm 3 mps 612 mmHg 93%
    09:00 +3°C° 0.6 mm 3 mps 612 mmHg 92%
    10:00 +4°C° 0.7 mm 3 mps 612 mmHg 90%
    11:00 +4°C° 0.7 mm 4 mps 612 mmHg 89%
    12:00 +4°C° 0.7 mm 4 mps 611 mmHg 87%
    13:00 +4°C° 1.7 mm 4 mps 611 mmHg 88%
    14:00 +3°C° 1.7 mm 5 mps 611 mmHg 88%
    15:00 +3°C° 1.7 mm 5 mps 611 mmHg 89%
    16:00 +3°C° 1.6 mm 5 mps 611 mmHg 90%
    17:00 +3°C° 1.6 mm 5 mps 611 mmHg 91%
    18:00 +3°C° 1.6 mm 5 mps 611 mmHg 92%
    19:00 +2°C° 2.4 mm 5 mps 611 mmHg 93%
    20:00 +3°C° 2.4 mm 4 mps 612 mmHg 94%
    21:00 +2°C° 2.4 mm 3 mps 612 mmHg 95%
    22:00 +1°C° 1.5 mm 3 mps 612 mmHg 95%
    23:00 +2°C° 1.5 mm 2 mps 612 mmHg 95%

    22 November, Wednesday

    Time Temperature Precipitation Wind Pressure Humidity
    00:00 +1°C° 1.5 mm 2 mps 613 mmHg 95%
    01:00 -1°C° 0.3 mm 2 mps 613 mmHg 95%
    02:00 -1°C° 0.3 mm 2 mps 613 mmHg 94%
    03:00 -2°C° 0.3 mm 2 mps 613 mmHg 94%
    04:00 -2°C° 0.4 mm 2 mps 613 mmHg 94%
    05:00 -2°C° 0.4 mm 2 mps 613 mmHg 94%
    06:00 -3°C° 0.4 mm 2 mps 613 mmHg 94%
    07:00 -3°C° 0.5 mm 2 mps 613 mmHg 94%
    08:00 -3°C° 0.5 mm 2 mps 614 mmHg 93%
    09:00 -3°C° 0.5 mm 2 mps 614 mmHg 93%
    10:00 -3°C° 0.3 mm 2 mps 614 mmHg 91%
    11:00 -2°C° 0.3 mm 2 mps 615 mmHg 88%
    12:00 -2°C° 0.3 mm 2 mps 615 mmHg 86%
    13:00 -2°C° 0.1 mm 2 mps 615 mmHg 85%
    14:00 -2°C° 0.1 mm 2 mps 615 mmHg 85%
    15:00 -2°C° 0.1 mm 2 mps 615 mmHg 84%
    16:00 -3°C° 0 mm 2 mps 615 mmHg 86%
    17:00 -4°C° 0 mm 2 mps 615 mmHg 87%
    18:00 -6°C° 0 mm 2 mps 615 mmHg 89%
    19:00 -6°C° 0 mm 2 mps 615 mmHg 90%
    20:00 -6°C° 0 mm 1 mps 615 mmHg 91%
    21:00 -6°C° 0 mm 1 mps 615 mmHg 91%
    22:00 -7°C° 0 mm 1 mps 615 mmHg 91%
    23:00 -7°C° 0 mm 1 mps 615 mmHg 91%

    23 November, Thursday

    Time Temperature Precipitation Wind Pressure Humidity
    00:00 -7°C° 0 mm 1 mps 615 mmHg 91%
    01:00 -7°C° 0 mm 1 mps 615 mmHg 91%
    02:00 -7°C° 0 mm 1 mps 616 mmHg 90%
    03:00 -7°C° 0 mm 1 mps 616 mmHg 89%
    04:00 -7°C° 0.1 mm 1 mps 616 mmHg 89%
    05:00 -7°C° 0.1 mm 1 mps 616 mmHg 89%
    06:00 -7°C° 0.1 mm 1 mps 616 mmHg 89%
    07:00 -6°C° 0.1 mm 1 mps 617 mmHg 89%
    08:00 -6°C° 0.1 mm 2 mps 617 mmHg 88%
    09:00 -5°C° 0.1 mm 2 mps 618 mmHg 88%
    10:00 -4°C° 0.1 mm 2 mps 618 mmHg 85%
    11:00 -5°C° 0 mm 3 mps 619 mmHg 82%
    12:00 -4°C° 0 mm 3 mps 619 mmHg 79%
    13:00 -4°C° 0.1 mm 3 mps 619 mmHg 79%
    14:00 -4°C° 0.1 mm 3 mps 619 mmHg 79%
    15:00 -4°C° 0.1 mm 3 mps 619 mmHg 79%
    16:00 -4°C° 0.1 mm 2 mps 619 mmHg 81%
    17:00 -6°C° 0.1 mm 2 mps 619 mmHg 84%
    18:00 -7°C° 0.1 mm 2 mps 619 mmHg 86%
    19:00 -7°C° 0 mm 2 mps 619 mmHg 87%
    20:00 -8°C° 0 mm 2 mps 619 mmHg 88%
    21:00 -7°C° 0 mm 1 mps 620 mmHg 89%
    22:00 -7°C° 0 mm 1 mps 620 mmHg 89%
    23:00 -9°C° 0 mm 2 mps 620 mmHg 90%

    24 November, Friday

    Time Temperature Precipitation Wind Pressure Humidity
    00:00 -9°C° 0 mm 2 mps 620 mmHg 90%
    01:00 -10°C° 0 mm 2 mps 620 mmHg 90%
    02:00 -10°C° 0 mm 2 mps 620 mmHg 91%
    03:00 -10°C° 0 mm 2 mps 620 mmHg 91%
    04:00 -12°C° 0 mm 2 mps 620 mmHg 90%
    05:00 -12°C° 0 mm 2 mps 620 mmHg 90%
    06:00 -12°C° 0 mm 2 mps 620 mmHg 89%
    07:00 -12°C° 0 mm 2 mps 621 mmHg 88%
    08:00 -10°C° 0 mm 2 mps 621 mmHg 86%
    09:00 -8°C° 0 mm 1 mps 622 mmHg 84%
    10:00 -7°C° 0 mm 1 mps 622 mmHg 81%
    11:00 -4°C° 0 mm 1 mps 622 mmHg 78%
    12:00 -3°C° 0 mm 1 mps 622 mmHg 75%
    13:00 -3°C° 0 mm 1 mps 622 mmHg 75%
    14:00 -3°C° 0 mm 1 mps 622 mmHg 75%
    15:00 -2°C° 0 mm 1 mps 621 mmHg 76%
    16:00 -4°C° 0 mm 1 mps 621 mmHg 77%
    17:00 -6°C° 0 mm 1 mps 621 mmHg 78%
    18:00 -8°C° 0 mm 1 mps 621 mmHg 79%
    19:00 -9°C° 0 mm 2 mps 621 mmHg 79%
    20:00 -10°C° 0 mm 2 mps 621 mmHg 79%
    21:00 -10°C° 0 mm 2 mps 621 mmHg 79%
    22:00 -10°C° 0 mm 2 mps 621 mmHg 78%
    23:00 -10°C° 0 mm 2 mps 621 mmHg 78%
    Show more